This demonstration page uses our WeatherBlox Daily Observations layout. Learn more.

Left ArrowRight Arrow

39.51506, -84.39828

Hourly Observations for September 26, 2016

Temp ( °F °C ) Dew Point ( °F °C ) Humidity (%) Winds ( mph kmh ) Pressure ( in mb ) Visibility ( mi km ) Precip ( " mm )
12:15 am 00:15 Hazy 69 20.8 64 17.8 83 83 N N/A 30.00 1016 5 8 N/A
12:35 am 00:35 Hazy 69 20.8 64 17.9 84 84 N N/A 30.00 1016 5 8 N/A
12:55 am 00:55 Hazy 69 20.4 63 17.4 83 83 N N/A 30.00 1016 5 8 N/A
1:15 am 01:15 Hazy 67 19.5 62 16.5 83 83 N N/A 30.00 1016 3 4 N/A
1:35 am 01:35 Hazy 67 19.6 62 16.7 83 83 N N/A 29.97 1015 4 6 N/A
1:55 am 01:55 Clear 68 20.2 63 17.4 84 84 N N/A 29.97 1015 7 11 N/A
2:15 am 02:15 Hazy 67 19.5 62 16.5 83 83 N N/A 29.97 1015 3 5 N/A
2:35 am 02:35 Hazy 67 19.5 62 16.7 84 84 N N/A 29.97 1015 5 8 N/A
2:55 am 02:55 Hazy 67 19.5 62 16.5 83 83 N N/A 29.97 1015 5 8 N/A
3:15 am 03:15 Mostly Cloudy with Haze 67 19.5 62 16.7 84 84 N N/A 29.94 1014 2 3 N/A
3:35 am 03:35 Hazy 67 19.5 62 16.7 84 84 N N/A 29.94 1014 4 6 N/A
3:55 am 03:55 Clear with Mist and Fog 65 18.5 61 15.9 85 85 N N/A 29.94 1014 3 4 N/A
4:15 am 04:15 Hazy 67 19.5 62 16.7 84 84 N N/A 29.94 1014 2 3 N/A
4:35 am 04:35 Mostly Cloudy with Haze 66 18.7 61 16.1 85 85 N N/A 29.94 1014 2 3 N/A
4:55 am 04:55 Mostly Cloudy with Haze 66 18.9 61 16.3 85 85 N N/A 29.91 1013 1 1 N/A
5:15 am 05:15 Mostly Cloudy with Haze 66 18.7 61 16.1 85 85 N N/A 29.91 1013 1 1 N/A
5:35 am 05:35 Mostly Cloudy with Mist and Fog 64 18 60 15.5 85 85 N N/A 29.91 1013 1 1 N/A
5:55 am 05:55 Mostly Cloudy with Mist and Fog 64 18 60 15.5 85 85 N N/A 29.91 1013 1 2 N/A
6:15 am 06:15 Partly Cloudy with Mist and Fog 64 18 60 15.5 85 85 N N/A 29.91 1013 4 6 N/A
6:35 am 06:35 Partly Cloudy with Mist and Fog 64 18 60 15.6 86 86 N N/A 29.91 1013 4 6 N/A
6:55 am 06:55 Clear with Mist and Fog 65 18.5 61 15.9 85 85 N N/A 29.91 1013 4 6 N/A
7:15 am 07:15 Mostly Cloudy with Haze 65 18.2 60 15.7 85 85 SW 5 7 29.94 1014 5 8 N/A
7:35 am 07:35 Cloudy 69 20.8 65 18.2 85 85 WSW 5 7 29.94 1014 7 11 N/A
7:55 am 07:55 Cloudy 69 20.8 63 17.3 80 80 W 20 31 29.97 1015 7 11 N/A
8:15 am 08:15 Cloudy 69 20.8 58 14.6 68 68 WNW 12 19 29.97 1015 10 16 N/A
8:35 am 08:35 Cloudy 69 20.8 58 14.7 68 68 NW 6 9 30.00 1016 10 16 N/A
8:55 am 08:55 Cloudy with Rain 67 19.5 57 14.1 71 71 NW 6 9 30.00 1016 5 8 N/A
9:15 am 09:15 Cloudy 64 18 54 12.4 70 70 WNW 3 6 30.00 1016 10 16 N/A
9:35 am 09:35 Cloudy with Rain 64 17.5 55 13 75 75 NNE 3 6 30.00 1016 4 6 N/A
9:55 am 09:55 Cloudy with Drizzle 63 17.2 55 13 76 76 N N/A 30.00 1016 10 16 N/A
10:15 am 10:15 Cloudy with Light Rain 63 17.2 56 13.1 77 77 N N/A 30.00 1016 10 16 N/A
10:35 am 10:35 Cloudy with Light Rain 63 17 55 13 77 77 N N/A 30.00 1016 10 16 N/A
10:55 am 10:55 Cloudy with Light Rain 63 17 56 13.3 79 79 SW 3 6 30.03 1017 7 11 N/A
11:15 am 11:15 Cloudy with Light Rain 63 17.3 57 14 81 81 WSW 5 7 30.03 1017 10 16 N/A
11:35 am 11:35 Cloudy with Light Rain 63 17 57 13.9 82 82 W 6 9 30.03 1017 10 16 N/A
11:55 am 11:55 Cloudy with Light Rain 63 17 56 13.5 80 80 W 8 13 30.03 1017 10 16 N/A
12:15 pm 12:15 Mostly Cloudy 63 17 55 12.8 76 76 W 7 11 30.03 1017 10 16 N/A
12:35 pm 12:35 Partly Cloudy 63 17.1 55 12.8 76 76 W 5 7 30.03 1017 10 16 N/A
12:55 pm 12:55 Partly Cloudy 63 17.3 55 13 76 76 W 8 13 30.03 1017 10 16 N/A
1:15 pm 13:15 Partly Cloudy 66 18.9 57 14 73 73 W 6 9 30.03 1017 10 16 N/A
1:35 pm 13:35 Sunny 65 18.4 55 12.9 70 70 W 7 11 30.03 1017 10 16 N/A
1:55 pm 13:55 Sunny 67 19.4 55 12.8 66 66 W 7 11 30.03 1017 10 16 N/A
2:15 pm 14:15 Sunny 69 20.8 53 11.9 57 57 WNW 9 15 30.03 1017 10 16 N/A
2:35 pm 14:35 Sunny 69 20.8 52 11.2 54 54 W 8 13 30.00 1016 10 16 N/A
2:55 pm 14:55 Sunny 69 20.8 50 10 50 50 W 10 17 30.00 1016 10 16 N/A
3:15 pm 15:15 Sunny 69 20.8 48 8.8 46 46 W 10 17 30.00 1016 10 16 N/A
3:35 pm 15:35 Sunny 69 20.8 47 8.5 45 45 W 10 17 30.00 1016 10 16 N/A
3:55 pm 15:55 Sunny 69 20.8 47 8.6 46 46 W 7 11 30.00 1016 10 16 N/A
4:15 pm 16:15 Sunny 69 20.8 47 8.5 45 45 WSW 10 17 30.00 1016 10 16 N/A
4:35 pm 16:35 Sunny 69 20.8 47 8.4 45 45 W 10 17 30.00 1016 10 16 N/A
4:55 pm 16:55 Sunny 69 20.8 47 8.3 45 45 W 9 15 30.00 1016 10 16 N/A
5:15 pm 17:15 Sunny 69 20.8 46 7.9 44 44 W 8 13 30.00 1016 10 16 N/A
5:55 pm 17:55 Sunny 69 20.8 45 7 41 41 WSW 9 15 30.00 1016 10 16 N/A
6:15 pm 18:15 Sunny 69 20.8 47 8.5 45 45 WSW 7 11 30.00 1016 10 16 N/A
6:35 pm 18:35 Sunny 69 20.8 46 7.7 43 43 WSW 8 13 30.00 1016 10 16 N/A
7:15 pm 19:15 Sunny 64 18 47 8.1 53 53 SW 5 7 30.00 1016 10 16 N/A
7:35 pm 19:35 Clear 61 16.3 49 9.3 63 63 WSW 3 6 30.00 1016 10 16 N/A
7:55 pm 19:55 Clear 60 15.3 51 10.4 73 73 WSW 3 6 30.03 1017 10 16 N/A
8:15 pm 20:15 Clear 60 15.3 51 10.6 74 74 WSW 3 6 30.03 1017 10 16 N/A
8:35 pm 20:35 Clear 57 13.8 50 9.9 78 78 N N/A 30.03 1017 10 16 N/A
8:55 pm 20:55 Clear 57 13.8 51 10.4 80 80 N N/A 30.06 1018 10 16 N/A
9:15 pm 21:15 Clear 57 13.8 50 10 78 78 N N/A 30.06 1018 10 16 N/A
9:35 pm 21:35 Clear 57 13.8 51 10.5 81 81 N N/A 30.06 1018 10 16 N/A
9:55 pm 21:55 Clear 56 13.4 51 10.6 83 83 N N/A 30.06 1018 10 16 N/A
10:15 pm 22:15 Clear 55 12.9 50 10.1 83 83 N N/A 30.06 1018 10 16 N/A
10:35 pm 22:35 Clear 55 12.9 49 9.7 81 81 N N/A 30.06 1018 10 16 N/A
10:55 pm 22:55 Clear 55 13 49 9.3 78 78 N N/A 30.06 1018 10 16 N/A
11:15 pm 23:15 Clear 55 12.5 49 9.5 82 82 N N/A 30.06 1018 10 16 N/A
11:35 pm 23:35 Clear with Mist and Fog 55 12.5 49 9.7 83 83 N N/A 30.06 1018 4 6 N/A
11:55 pm 23:55 Clear 55 13 50 10.1 83 83 N N/A 30.06 1018 10 16 N/A

Powered by AerisWeather